Location: Newark
(45.2500°N, 7.5833°E)
Time: 00:03:22
(UTC+00:00)

Vanguard 1 Rocket - All Passes

Search period start: 18 January 2020 00:00
Search period end: 28 January 2020 00:00
Orbit: 650 x 4226 km, 34.3° (Epoch: 16 January)

Date Brightness Start Highest point End Pass type
(mag) Time Alt. Az. Time Alt. Az. Time Alt. Az.
18 Jan - 08:35:44 10° S 08:42:20 19° SE 08:51:47 10° E daylight
18 Jan - 10:55:43 10° SW 11:06:58 48° SSE 11:27:12 10° E daylight
18 Jan - 13:19:56 10° WSW 13:35:33 60° S 14:00:25 10° ESE daylight
18 Jan - 15:46:47 10° W 16:06:04 47° SSW 16:29:48 10° SE daylight
18 Jan - 18:18:31 10° W 18:35:05 23° SW 18:51:42 10° S visible
19 Jan - 09:46:02 10° SSW 09:55:12 36° SE 10:11:11 10° E daylight
19 Jan - 12:08:52 10° WSW 12:22:01 58° S 12:45:07 10° ESE daylight
19 Jan - 14:34:25 10° W 14:51:53 54° SSW 15:16:38 10° SE daylight
19 Jan - 17:03:13 10° W 17:21:48 33° SW 17:42:21 10° SSE visible
20 Jan - 08:37:21 10° S 08:44:16 23° SE 08:54:54 10° E daylight
20 Jan - 10:58:22 10° SW 11:09:17 51° SSE 11:29:22 10° E daylight
20 Jan - 13:22:46 10° W 13:37:53 58° S 14:02:19 10° ESE daylight
20 Jan - 15:49:43 10° W 16:08:01 42° SSW 16:30:59 10° SSE daylight
20 Jan - 18:23:07 10° W 18:36:38 18° SW 18:50:31 10° SSW visible
21 Jan - 07:31:56 10° SE 07:33:58 11° SE 07:36:14 10° ESE daylight
21 Jan - 09:48:28 10° SW 09:57:24 40° SSE 10:13:32 10° E daylight
21 Jan - 12:11:41 10° WSW 12:24:25 58° S 12:47:08 10° ESE daylight
21 Jan - 14:37:19 10° W 14:54:03 49° SSW 15:18:07 10° SE daylight
21 Jan - 17:06:42 10° W 17:23:33 27° SW 17:42:30 10° S visible
22 Jan - 08:39:22 10° SSW 08:46:22 27° SE 08:57:43 10° E daylight
22 Jan - 11:01:07 10° WSW 11:11:41 53° SSE 11:31:30 10° E daylight
22 Jan - 13:25:39 10° W 13:40:14 55° S 14:04:02 10° ESE daylight
22 Jan - 15:52:50 10° W 16:09:59 36° SSW 16:31:47 10° SSE daylight
22 Jan - 18:29:48 10° WSW 18:38:15 13° SW 18:46:59 10° SSW visible
23 Jan - 07:31:56 10° SSE 07:35:58 14° SE 07:41:11 10° ESE daylight
23 Jan - 09:51:04 10° SW 09:59:45 44° SSE 10:15:50 10° E daylight
23 Jan - 12:14:34 10° WSW 12:26:53 56° S 12:49:03 10° ESE daylight
23 Jan - 14:40:18 10° W 14:56:14 44° SSW 15:19:20 10° SE daylight
23 Jan - 17:10:46 10° W 17:25:19 22° SW 17:41:50 10° S visible
24 Jan - 08:41:39 10° SSW 08:48:36 31° SE 09:00:21 10° E daylight
24 Jan - 11:03:57 10° WSW 11:14:12 54° S 11:33:34 10° ESE daylight
24 Jan - 13:28:36 10° W 13:42:36 50° SSW 14:05:34 10° SE daylight
24 Jan - 15:56:13 10° W 16:11:58 30° SW 16:32:05 10° SSE daylight
25 Jan - 07:33:21 10° S 07:38:06 18° SE 07:44:45 10° E daylight
25 Jan - 09:53:48 10° SW 10:02:13 46° SSE 10:18:05 10° E daylight
25 Jan - 12:17:30 10° WSW 12:29:23 53° S 12:50:50 10° ESE daylight
25 Jan - 14:43:26 10° W 14:58:26 38° SSW 15:20:12 10° SSE daylight
25 Jan - 17:15:54 10° WSW 17:27:11 16° SW 17:39:49 10° SSW visible
26 Jan - 08:44:10 10° SSW 08:50:59 34° SSE 09:02:52 10° E daylight
26 Jan - 11:06:52 10° WSW 11:16:45 53° S 11:35:35 10° ESE daylight
26 Jan - 13:31:38 10° W 13:45:01 45° SSW 14:06:52 10° SE daylight
26 Jan - 16:00:01 10° W 16:14:01 24° SW 16:31:44 10° S daylight
27 Jan - 07:35:20 10° S 07:40:22 21° SE 07:47:51 10° E daylight
27 Jan - 09:56:38 10° WSW 10:04:48 48° SSE 10:20:17 10° E daylight
27 Jan - 12:20:30 10° W 12:31:56 49° S 12:52:28 10° SE daylight
27 Jan - 14:46:46 10° W 15:00:41 32° SSW 15:20:39 10° SSE daylight
27 Jan - 17:24:43 10° WSW 17:29:10 11° SW 17:33:50 10° SW visible
